Location: Hains Lake
(37.8540°N, 99.8578°W)
Time: 01:23:24
(UTC+00:00)

Transit 2A - Pass Details

Date: 21 April 2021
Orbit: 602 x 957 km, 66.7° (Epoch: 14 May)

Event Time Altitude Azimuth Distance (km) Brightness Sun altitude
Rises 22:41:13 0° 328° (NNW) 2,892 9.3 30.4°
Reaches altitude 10° 22:43:26 10° 325° (NW) 2,009 8.6 30.0°
Maximum altitude 22:47:53 63° 245° (WSW) 736 7.0 29.1°
Drops below altitude 10° 22:52:42 10° 164° (SSE) 2,165 8.3 28.2°
Sets 22:55:09 0° 162° (SSE) 3,138 9.1 27.7°
